Regional Weather Roundup
Issued by NWS Lake Charles, LA

Home | Current Version | Previous Version | Text Only | Print | Product List | Glossary On
Versions: 1 2 3 4 5 6 7 8 9 10 11 12 13 14 15 16 17 18 19 20 21 22 23 24 25 26 27 28 29 30 31 32 33 34 35 36 37 38 39 40 41 42 43 44 45 46 47 48 49 50
000
ASUS44 KLCH 250210
RWRLCH
RWRLCH
REGIONAL WEATHER ROUNDUP
NATIONAL WEATHER SERVICE LAKE CHARLES LA
800 PM CST MON NOV 24 2014

Note: "fair" indicates few or no clouds below 12,000 feet with no
significant weather and/or obstructions to visibility.


ACROSS SOUTHEAST TEXAS

CITY           SKY/WX    TMP DP  RH WIND       PRES   REMARKS
BEAUMONT       CLOUDY    56  39  53 N6        30.08R
BEAUMONT CITY    N/A     52  44  75 CALM      30.09R
ORANGE         CLOUDY    55  40  57 CALM      30.10R
JASPER         PTCLDY    46  44  94 CALM      30.11R
$$

ACROSS CENTRAL LOUISIANA

CITY           SKY/WX    TMP DP  RH WIND       PRES   REMARKS
LEESVILLE      MOCLDY    47  43  85 N5        30.07R
FULLERTON        N/A     50  42  74 CALM      30.05R
ALEXANDRIA INT MOCLDY    48  40  73 N6        30.05R
ESLER FIELD    PTCLDY    47  41  80 CALM      30.06R
DERIDDER         N/A     50  40  69 CALM      30.09R
OAKDALE        CLOUDY    49  46  87 CALM      30.07R
OPELOUSAS        N/A     50  40  67 CALM      30.06R
$$

ACROSS SOUTHWEST AND SOUTH CENTRAL LOUISIANA

CITY           SKY/WX    TMP DP  RH WIND       PRES   REMARKS
SULPHUR        CLOUDY    55  39  53 NW5       30.08R
LAKE CHARLES   CLOUDY    56  37  49 N8        30.07R
CHENNAULT INT  MOCLDY    55  39  54 N5        30.08
CAMERON PHI    CLEAR     57  39  51 N9        30.10R
DEQUINCY         N/A     50  40  68 CALM      30.08R
JENNINGS         N/A     52  42  67 CALM      30.07R
LAFAYETTE      PTCLDY    52  39  61 N6        30.05R
NEW IBERIA     PTCLDY    52  40  63 N6        30.05R
ABBEVILLE        N/A     47  40  76 NW6       30.05R
PATTERSON      MOCLDY    55  37  50 N8        30.05R
SALT POINT       N/A     60  43  53 N5        30.02R
$$

SELECTED SITES ACROSS THE REGION

CITY           SKY/WX    TMP DP  RH WIND       PRES   REMARKS
HOUSTON BUSH   PTCLDY    55  36  48 NW3       30.10R
HOUSTON HOBBY  CLOUDY    58  36  43 N6        30.09R
GALVESTON      CLOUDY    59  42  53 N13       30.09R
COLLEGE STAT   CLEAR     50  31  48 N3        30.12R
CONROE         PTCLDY    45  42  89 CALM      30.11R
HUNTSVILLE     CLEAR     47  35  63 N3        30.11R
LUFKIN         PTCLDY    46  37  71 CALM      30.10R
SHREVEPORT     PTCLDY    48  34  58 W3        30.09R
MONROE         PTCLDY    48  35  60 CALM      30.09R
NATCHEZ MS     CLEAR     46  37  71 CALM      30.06R
BATON ROUGE    PTCLDY    52  36  54 CALM      30.04R
N.O. INTL ARPT CLOUDY    59  44  57 N13       30.01R
SLIDELL        MOCLDY    55  45  68 N3        30.01R
$$

MARINE REPORTS

STATION/POSITION TIME  TEMP    WIND        PRES    VSBY  WAVE
                       AIR SEA DIR/SP/G                  HT/PER
                 (UTC) (F)     (DEG/KT/KT) (MB)    (MI)  (FT/S)
BUOY 30 S HIGH I 0200   60 62   10/ 17/ 19 1017.6R         3/ 4
SEA RIM ST PARK  0200   56     350/  6/  7 1019.2R
PORT ARTHUR      0200      60  350/  5/  6 1018.6R
SABINE PASS N    0200   59 60  360/  8/ 11 1018.3R
TEXAS POINT      NOT AVBL
CALCASIEU PASS   0200   58 59   10/  8/ 10   N/A
LK CHARLES BEACH 0200   57 63              1018.4R
MARSH ISLAND     NOT AVBL
FRESH WATER LOCK 0200   54 60  330/  7/  8 1017.4R
AMERADA PASS     0200   58 62  330/  5/ 10 1016.4R
$$


USA.gov is the U.S. government's official web portal to all federal, state and local government web resources and services.